Flag for U.S.A. Weather past 2 weeks in Sunnyvale, California, U.S.A.

Now
68 °F

Sunny.


Feels Like: 68 °F
Forecast: 62 / 88 °F
Wind: 3 mph from Northeast

Location: Moffett Field

Current Time: Jul 26, 2014 at 8:15:39 AM

Latest Report: Jul 26, 2014 at 7:56 AM


Visibility: 10 mi

Pressure: 29.94 "Hg

Humidity: 73%

Dew point: 59 °F

Location of SunnyvaleLocation

Historic Weather in Sunnyvale — Graph

°F

Sunnyvale temperature yesterday

Maximum temperature yesterday: 93 °F (at 2:56 PM)
Minimum temperature yesterday: 63 °F (at 4:56 AM)
Average temperature yesterday: 75 °F

Past Weeks' High & Low Weather Summary

 TemperatureHumidityPressure
High93 °F (Jul 25, 2:56 PM)90% (Jul 24, 5:56 AM)30.15 "Hg (Jul 24, 5:56 AM)
Low59 °F (Jul 13, 4:56 AM)19% (Jul 25, 1:56 PM)29.83 "Hg (Jul 25, 4:56 PM)
Average69 °F69%29.99 "Hg
* Reported Jul 11 6:56 AM — Jul 26 6:56 AM, Sunnyvale, Weather by CustomWeather, © 2014

Note: Actual official high and low records may vary slightly from our data, if they occured in-between our weather recording intervals... More about our weather records

Advertising

Sunnyvale weather history for previous 24 hours

 ConditionsComfort  
Time TempWeatherWind HumidityBarometerVisibility
6:56 AM
Jul 26
65 °FClear.No wind76%29.93 "Hg10 mi
5:56 AM64 °FClear.No wind78%29.91 "Hg10 mi
4:56 AM65 °FClear.No wind76%29.89 "Hg10 mi
3:56 AM66 °FClear.No wind75%29.89 "Hg10 mi
2:56 AM67 °FClear.No wind79%29.89 "Hg10 mi
1:56 AM67 °FClear.3 mph79%29.89 "Hg10 mi
12:56 AM69 °FClear.No wind76%29.89 "Hg10 mi
11:56 PM
Jul 25
69 °FClear.3 mph73%29.89 "Hg10 mi
10:56 PM73 °FClear.No wind57%29.89 "Hg10 mi
9:56 PM75 °FClear.No wind54%29.89 "Hg10 mi
8:56 PM75 °FSunny.3 mph54%29.87 "Hg10 mi
7:56 PM77 °FSunny.9 mph50%29.85 "Hg10 mi
6:56 PM79 °FSunny.12 mph48%29.83 "Hg10 mi
5:56 PM82 °FSunny.16 mph46%29.83 "Hg10 mi
4:56 PM87 °FSunny.15 mph35%29.83 "Hg10 mi
3:56 PM91 °FSunny.10 mph32%29.83 "Hg10 mi
2:56 PM93 °FSunny.10 mph27%29.84 "Hg10 mi
1:56 PM91 °FSunny.9 mph19%29.85 "Hg10 mi
12:56 PM88 °FSunny.7 mph31%29.86 "Hg10 mi
11:56 AM83 °FSunny.6 mph44%29.88 "Hg10 mi
10:56 AM79 °FSunny.5 mph54%29.88 "Hg10 mi
9:56 AM72 °FSunny.6 mph66%29.90 "Hg10 mi
8:56 AM70 °FSunny.3 mph68%29.90 "Hg10 mi
Weather by CustomWeather, © 2014

See weather overviewHow to use our weather pages